IRIDIUM 33 DEB, 34159

Orbit data source: Space-Track

IRIDIUM 33 DEB, 34159 is space debris in LEO originally from a launch on Sun, 14 Sep 1997 UTC launched from the Tyuratam Missile And Space Complex (TTMTR). The debris from Iridium 33, an American commercial communications satellite, has been tracked extensively since its accidental collision with the defunct Russian satellite Cosmos 2251 in 2009. This event, occurring at high speed in low Earth orbit (LEO), generated thousands of pieces of space debris, significantly increasing the risk of further collisions. The Iridium 33 debris cloud has impacted space traffic management and orbital debris mitigation strategies, making it a subject of ongoing study in space situational awareness.

Loading next visibility...
Identifier
34159, 1997-051EN
Orbit
LEO
Country
Flag of USUS
Related business
Manufacturer
Unknown
Mission
Spacecraft
Bus & Motor
Unknown
Mass
Unknown
Launch date (UTC)
1997-09-14 (28 years ago)
Launch vehicle
Unknown
Launch site
Tyuratam Missile And Space Complex (TTMTR)
Object type
Payload
Rocket body
Debris
Shape & HBR
Unknown shape, 0.1 m
Radar Cross Section
Small (<0.1 m²)

Expand to show TLE details & history
Last TLE update: 12 hours ago

TLE from 12 hours ago
0 IRIDIUM 33 DEB
1 34159U 97051EN  25304.78582808  .00001904  00000-0  61602-3 0  9996
2 34159  86.3502  66.1219 0029806  67.1469 293.2871 14.38325927873566
Epoch: 2025-10-31T18:51Z
TLE epoch observation values (Epoch: 2025-10-31T18:51:35.546Z)
Latitude
-0.00006°
Longitude
102.89852°
Altitude
758.727 km
Speed
7.479 km/s
True Right ascension
04h 24m 29s
True Declination
0° 00' 00"
Sunlit
Object was in full shadow at epoch
Visualization orbit readout
Latitude
Unknown
Longitude
Unknown
Altitude
Unknown
Speed
Unknown
Apparent Right ascension
Unknown
Apparent Declination
Unknown
Sunlit
N/A
Visualization observer readout
Local Sidereal Time
03:04:26
Azimuth
Unknown
Elevation
Unknown
Doppler factor
Unknown
Orbital elements
Apogee altitude
782.273 km
Perigee altitude
739.716 km
Semi-major axis
7,139.132 km
Eccentricity
0.00298
Inclination
86.3502°
RAAN
66.1219°
Arg. of periapsis
67.1469°
True anomaly
292.97291°
Mean anomaly
293.2871°
Eccentric anomaly
293.13005°
Mean motion
3.59812 °/min
Orbital period
100.05 mins
BSTAR
0.00061602
Loading maneuver chart data...
Computing Atmospheric mass density...

Documentation

Showing up to 5 results
|